Location: Buch
(50.1863°N, 11.0141°E)
Time: 22:18:08
(UTC+00:00)

STARLINK-43 - Pass Details

Date: 18 January 2020
Orbit: 474 x 476 km, 53.0° (Epoch: 18 February)

Event Time Altitude Azimuth Distance (km) Brightness Sun altitude
Exits shadow 04:54:17 62° 206° (SSW) 543 3.4 -20.7°
Maximum altitude 04:54:45 72° 155° (SSE) 507 3.4 -20.6°
Drops below altitude 10° 04:58:28 10° 71° (ENE) 1,654 7.0 -20.1°
Sets 05:00:38 0° 69° (ENE) 2,535 8.0 -19.7°
